CAPE
220 427 190 133 515 636 291 121 174 92 34 129 14 1 15 13 0 0 76 642 837 1484 1489 1880 1861 2041 2107 2184 1966 2097 2040 1988 2093 2082 1773 1596 1394 1533 1413 948 762 722 658
119 382 180 70 77 106 126 29 42 3 19 58 90 59 6 65 26 8 0 113 691 1199 1407 1511 1861 1320 1847 1992 2025 2045 2079 2030 2065 2061 1954 1437 1640 1291 1402 947 885 655 499
135 264 273 106 87 35 129 170 109 70 57 31 46 22 66 77 84 33 18 15 568 814 1263 1443 1392 1613 1886 1920 1921 1875 1941 1827 1866 1968 1881 1526 1691 1385 1224 871 741 608 411
322 199 211 176 126 164 193 214 228 95 73 56 45 39 23 32 75 77 20 11 231 614 721 745 883 954 1765 1818 1828 1782 1715 1703 1742 1881 1830 1528 1399 1601 1105 1007 784 571 511
315 278 176 166 168 211 158 191 151 97 103 98 76 38 26 8 6 75 76 38 75 241 213 226 362 618 1159 1595 1814 1869 1672 1540 1553 1527 1631 1623 1534 1565 1241 934 821 476 437
430 224 126 228 349 153 164 156 125 101 121 101 114 76 101 49 17 27 31 70 46 74 80 82 82 435 399 1059 1605 1495 1983 1880 1633 1602 1536 1396 1410 1481 1022 548 710 670 473
386 171 103 210 240 174 194 167 142 94 69 116 127 123 88 127 81 29 19 39 60 55 35 68 113 115 344 467 694 906 1767 1849 1688 1673 1427 1399 1372 1231 1163 675 989 1157 926
343 105 103 178 190 126 118 165 177 131 57 94 85 48 46 85 90 97 52 35 45 29 27 15 24 52 58 116 239 476 871 1614 1644 1712 1590 1179 1226 1245 1041 637 389 474 552
343 251 153 198 159 116 103 134 171 124 81 80 83 40 20 10 29 75 66 27 57 31 6 2 4 11 25 9 40 196 493 1236 1356 1597 1579 1387 1196 961 1158 884 567 965 739
528 296 207 157 209 137 116 108 139 149 89 69 116 85 35 16 14 25 77 72 29 24 1 0 0 0 4 19 2 64 419 1032 1220 1378 1415 1406 1353 1074 827 818 613 296 318
471 325 215 238 265 248 176 137 129 113 117 64 45 47 45 38 32 41 25 46 22 16 31 0 0 0 0 0 0 2 106 770 952 1237 1344 1129 1416 1305 1112 1018 881 717 463
518 482 372 326 347 395 333 275 131 172 109 74 45 54 69 50 39 52 57 61 26 12 20 11 12 0 0 0 0 3 54 155 431 751 973 1003 910 1054 987 1151 1144 1138 1038
630 571 528 436 513 497 303 182 94 129 106 47 28 27 63 55 44 33 64 9 25 54 67 36 19 13 0 0 0 0 28 143 188 322 703 952 1030 1127 1224 1120 1031 1027 921
673 588 602 615 450 407 298 213 111 20 15 21 38 37 35 67 67 22 24 23 3 50 62 119 81 42 7 0 0 0 0 30 10 117 175 328 596 865 1148 1070 994 903 956
891 812 708 731 570 368 245 157 45 0 5 0 0 0 0 31 56 64 60 68 59 3 46 99 111 92 51 4 0 4 6 13 38 50 100 62 98 356 641 831 813 711 683
1096 934 805 681 545 309 270 199 103 58 9 0 4 6 32 67 63 84 88 109 84 26 17 86 80 101 52 0 0 33 40 13 28 38 102 42 18 125 230 343 497 484 514
1242 926 714 707 667 483 365 256 207 157 108 77 43 29 11 75 139 165 160 154 114 65 30 61 72 82 83 85 49 64 37 44 58 46 70 60 35 54 103 119 173 252 300
1553 1225 913 829 743 621 416 321 232 162 112 78 60 47 46 192 172 188 150 122 134 90 67 57 64 76 101 95 86 74 58 59 77 69 55 38 8 43 45 38 72 59 92
1715 1439 1206 1030 894 768 622 460 422 306 254 251 160 193 332 312 170 82 58 70 97 91 65 49 37 53 97 155 127 98 143 124 114 129 81 74 3 0 12 0 11 4 0
1746 1619 1411 1242 1093 936 729 669 491 398 553 626 589 618 614 319 176 51 50 31 92 89 70 67 73 32 46 63 118 154 123 118 165 162 152 100 54 0 1 1 0 0 0
1643 1550 1455 1353 1176 1003 891 759 748 714 698 657 682 485 298 168 107 7 66 118 66 70 96 75 50 18 16 9 28 49 146 161 111 112 132 92 50 8 2 0 0 0 0
1572 1475 1401 1264 1164 1120 1075 1049 945 917 887 748 551 382 179 0 0 3 23 2 26 116 87 10 14 32 24 17 5 10 56 121 132 105 99 102 33 44 6 0 0 0 0
1458 1239 1203 1227 1138 1028 1220 1165 1150 1140 1054 937 555 365 83 0 0 0 9 0 1 0 4 22 17 30 35 5 42 58 35 68 113 112 102 130 68 78 47 55 4 5 0
1437 1310 1274 1268 1175 1185 1290 1180 1229 1238 1209 1049 752 461 115 0 0 0 11 13 3 14 8 7 5 17 32 64 103 103 65 82 76 116 130 109 145 141 132 84 52 11 0
1430 1369 1297 1368 1368 1397 1328 1212 1311 1157 914 777 635 466 193 42 21 3 0 18 16 0 0 0 0 0 0 11 16 47 99 63 75 89 179 168 157 139 84 110 60 15 30
1618 1486 1392 1520 1478 1479 1511 1245 1044 993 907 735 493 499 248 139 17 12 16 0 0 0 0 0 0 0 0 0 4 1 0 35 60 66 93 78 66 18 26 24 34 0 0
CIN
-67 -47 -50 -50 -22 -25 -36 -56 -49 -55 -65 -49 -147 -89 -118 -103 -1 -21 -88 -12 -6 -1 0 0 0 0 0 0 0 0 0 0 0 0 0 0 -1 0 0 -15 -31 -28 -23
-86 -59 -55 -69 -73 -70 -70 -71 -66 -105 -91 -61 -60 -67 -138 -73 -100 -155 0 -74 -12 -3 -1 0 0 -3 -1 0 0 0 0 0 0 0 0 -2 0 -1 0 -19 -17 -42 -46
-88 -66 -71 -71 -68 -92 -76 -54 -51 -59 -55 -69 -73 -66 -49 -59 -71 -111 -177 -149 -18 -10 -2 -1 -2 -2 0 0 0 -1 0 0 -1 0 0 -1 -1 -3 -3 -23 -32 -40 -58
-78 -70 -72 -73 -71 -71 -75 -72 -51 -52 -44 -38 -58 -52 -58 -59 -54 -66 -151 -142 -42 -16 -6 -6 -5 -12 0 0 0 0 -1 -2 -2 -1 0 -3 -5 0 -14 -12 -24 -42 -46
-81 -68 -72 -66 -71 -64 -69 -74 -82 -57 -68 -25 -32 -45 -46 -73 -82 -52 -57 -102 -71 -30 -29 -22 -15 -14 -5 0 0 0 -2 -3 -4 -3 0 -1 -1 -1 -9 -17 -17 -45 -47
-76 -76 -72 -71 -55 -66 -69 -79 -57 -67 -61 -30 -10 -12 -9 -28 -55 -55 -60 -59 -69 -60 -36 -30 -31 -16 -26 -2 0 -2 0 0 -1 -2 -3 -3 -2 -4 -24 -54 -29 -25 -38
-70 -85 -83 -71 -73 -61 -60 -71 -74 -81 -76 -42 -2 -1 -5 -2 -7 -51 -37 -51 -47 -51 -59 -40 -32 -35 -20 -18 -11 -7 0 0 0 0 -10 -2 -5 -11 -10 -46 -18 -2 -6
-88 -99 -86 -83 -89 -82 -85 -76 -71 -73 -79 -62 -43 -27 -9 -1 -6 -21 -30 -35 -46 -51 -47 -87 -78 -62 -56 -41 -33 -7 -16 -1 0 0 -3 -15 -9 -9 -12 -48 -71 -55 -40
-83 -84 -89 -71 -74 -90 -79 -86 -72 -72 -64 -76 -53 -46 -35 -34 -24 -17 -21 -29 -39 -49 -61 -30 -89 -81 -57 -65 -31 -20 -19 -4 -2 0 0 -9 -9 -25 -6 -20 -50 -13 -34
-82 -90 -87 -78 -72 -83 -82 -91 -89 -72 -70 -63 -31 -59 -62 -48 -22 -29 -12 -25 -53 -50 -11 0 0 0 -47 -53 -55 -75 -17 -6 -3 -2 0 -4 -4 -14 -33 -22 -38 -76 -72
-84 -90 -89 -80 -71 -77 -81 -85 -81 -80 -72 -64 -55 -54 -44 -40 -47 -15 -22 -45 -62 -75 -64 -1 0 0 0 0 0 -106 -78 -6 -6 -2 0 -12 -1 0 -8 -15 -21 -25 -46
-104 -105 -94 -81 -81 -76 -73 -72 -82 -62 -60 -62 -45 -38 -28 -31 -41 -20 -13 -19 -41 -81 -74 -108 -122 0 0 0 0 -102 -133 -97 -47 -24 -18 -18 -27 -11 -10 -2 -3 -5 -6
-115 -118 -102 -96 -83 -67 -75 -72 -76 -61 -52 -49 -52 -43 -31 -30 -40 -40 -14 -56 -41 -46 -52 -97 -162 -177 0 0 0 0 -182 -119 -119 -91 -37 -19 -21 -14 -2 0 -1 -2 -10
-86 -97 -92 -93 -114 -86 -78 -60 -46 -54 -59 -53 -42 -38 -34 -32 -35 -48 -48 -34 -52 -43 -53 -68 -117 -168 -58 0 0 0 0 -180 -215 -149 -125 -84 -48 -26 -5 -5 -2 -4 -2
-77 -74 -101 -86 -86 -100 -95 -89 -102 -11 -65 0 0 -8 -5 -50 -34 -46 -38 -23 -7 -62 -68 -79 -72 -131 -174 -37 0 -25 -68 -198 -171 -169 -148 -153 -125 -67 -38 -18 -15 -19 -16
-55 -76 -90 -108 -98 -113 -88 -91 -90 -72 -62 0 -62 -53 -44 -42 -50 -52 -49 -35 -20 -32 -74 -71 -88 -116 -148 0 0 -157 -164 -64 -161 -158 -140 -152 -159 -110 -89 -69 -43 -32 -16
-59 -99 -119 -101 -62 -85 -89 -69 -55 -37 -35 -41 -58 -57 -54 -18 -21 -33 -38 -38 -30 -38 -89 -93 -82 -85 -101 -132 -151 -149 -159 -128 -147 -151 -145 -133 -119 -102 -96 -95 -82 -65 -47
-46 -73 -123 -118 -90 -76 -77 -75 -67 -63 -57 -64 -73 -79 -79 -42 -40 -38 -33 -31 -29 -51 -39 -75 -81 -58 -75 -98 -108 -135 -144 -135 -127 -141 -136 -131 -51 -125 -115 -114 -113 -120 -99
-59 -83 -99 -94 -74 -71 -67 -65 -49 -51 -42 -41 -49 -30 -22 -21 -33 -55 -53 -46 -42 -49 -50 -30 -42 -52 -49 -48 -70 -84 -79 -95 -96 -87 -109 -106 -21 0 -86 0 -140 -52 0
-71 -93 -115 -108 -92 -78 -76 -51 -57 -58 -22 -8 -3 -2 -7 -20 -30 -47 -45 -39 -26 -23 -30 -27 -14 -29 -51 -74 -50 -63 -71 -103 -90 -75 -86 -128 -148 0 -75 -141 0 0 0
-111 -111 -108 -96 -100 -111 -105 -108 -78 -50 -30 -27 -20 -40 -63 -64 -50 -31 -26 -8 -11 -15 -11 -14 -32 -32 -59 -94 -90 -83 -54 -71 -99 -84 -61 -99 -146 -143 -129 0 0 0 0
-163 -157 -134 -125 -106 -73 -55 -48 -61 -72 -70 -78 -75 -77 -108 0 0 -26 -76 0 -31 -12 -22 -46 -36 -30 -48 -71 -95 -67 -49 -50 -41 -124 -74 -91 -140 -122 -129 -3 0 0 0
-183 -195 -185 -144 -128 -130 -62 -42 -24 -19 -30 -53 -102 -111 -162 0 0 0 -39 0 0 0 -21 -27 -27 -42 -28 -56 -47 -49 -56 -54 -47 -66 -91 -61 -128 -97 -167 -167 -149 -155 0
-209 -207 -195 -176 -158 -143 -141 -179 -112 -53 -24 -27 -62 -97 -167 0 0 0 -58 -98 -36 -65 -50 -51 -39 -19 -15 -15 -15 -17 -30 -15 -13 -35 -46 -31 -97 -81 -82 -121 -165 -142 0
-178 -172 -170 -138 -134 -98 -75 -50 -86 -137 -139 -96 -80 -102 -145 -181 -183 -137 0 -111 -110 0 0 -33 0 0 0 -25 -25 -6 -5 -7 -17 -6 -19 -15 -66 -66 -105 -116 -191 -236 -206
-105 -112 -118 -89 -66 -52 -35 -44 -41 -51 -94 -144 -127 -85 -119 -133 -172 -169 -208 -4 0 0 0 0 0 0 0 0 -55 -28 -15 -8 -4 -7 -24 -10 -41 -60 -39 -151 -157 0 -24
Wind_Speed
22 21 20 18 20 19 19 18 18 18 14 13 14 12 12 16 10 7 4 13 17 19 16 14 16 12 5 5 2 7 8 6 4 6 8 6 6 6 6 6 7 10 13
20 19 19 19 21 20 18 18 17 16 14 13 13 11 13 13 11 10 14 9 18 19 16 17 19 15 8 6 3 4 12 13 10 5 6 6 6 7 6 6 6 7 10
18 17 18 18 19 17 14 15 16 14 12 10 10 11 7 8 8 11 9 16 16 17 17 17 17 15 12 6 6 3 4 16 14 10 5 6 6 8 9 8 7 7 8
18 13 14 15 16 14 13 14 13 10 8 8 8 10 11 10 11 12 13 12 7 12 15 17 16 13 16 18 10 7 1 22 22 19 11 8 9 10 10 12 11 10 9
18 13 11 10 10 8 9 9 9 7 6 6 7 7 6 12 12 8 9 11 9 6 15 16 17 11 17 19 18 11 7 27 25 22 16 11 14 10 10 13 16 16 15
14 11 8 8 6 5 5 6 6 6 8 10 10 11 13 11 10 16 12 10 10 14 12 14 17 18 19 22 21 17 32 30 28 25 23 21 18 13 12 12 16 21 21
14 13 12 10 7 5 4 4 5 5 7 9 9 8 10 12 16 16 11 9 13 16 18 16 17 15 20 26 21 29 34 31 29 28 27 27 24 18 16 19 20 18 19
14 14 9 11 9 7 5 6 6 6 7 7 10 10 13 11 9 13 7 12 14 14 17 18 18 20 23 25 32 36 38 34 32 32 30 28 28 27 27 25 25 24 22
14 15 14 10 9 6 6 8 8 4 5 4 5 9 10 9 12 7 4 12 13 14 14 17 20 20 24 28 30 38 42 38 35 34 32 31 31 29 30 29 27 28 25
13 13 13 10 9 7 5 6 4 2 8 3 6 7 11 11 14 15 14 11 11 15 16 14 18 21 23 28 33 38 42 41 38 36 35 34 33 32 32 31 30 30 30
11 12 12 11 7 5 6 6 5 6 1 6 7 16 1 5 7 14 18 15 3 14 12 15 15 19 22 26 33 37 40 39 38 37 33 33 32 31 32 32 32 32 31
11 11 12 12 11 8 7 9 6 2 3 5 9 12 11 11 2 3 9 13 8 10 11 12 15 16 18 25 30 35 36 36 36 36 31 27 29 28 29 29 30 30 30
8 10 12 11 11 12 8 7 4 4 5 7 11 11 9 8 11 8 3 25 21 24 18 5 13 13 15 19 29 31 33 34 34 34 32 27 24 25 24 23 26 26 26
12 9 11 11 11 9 6 3 3 5 5 9 7 23 20 13 8 5 6 16 24 19 18 17 4 8 11 13 22 29 30 33 34 33 33 31 30 28 25 24 25 24 17
8 12 10 11 11 8 6 5 4 6 4 5 4 16 11 14 20 15 5 11 16 27 28 18 12 5 9 9 13 18 24 29 34 34 33 32 31 30 30 28 28 26 21
5 6 8 5 7 4 11 1 2 2 6 11 17 23 11 20 35 21 8 6 8 11 33 20 4 16 5 9 11 13 14 20 28 31 33 32 30 29 29 29 29 27 26
6 5 1 3 11 11 3 4 7 8 13 15 6 9 21 22 34 30 8 6 7 6 9 24 21 12 11 10 10 11 14 14 16 23 30 31 30 30 30 27 24 23 22
9 7 5 6 9 6 3 4 4 3 5 3 2 16 32 31 5 8 10 8 9 12 11 10 21 22 16 16 17 13 14 15 18 16 21 27 28 27 24 25 25 22 19
9 8 7 5 4 4 4 3 3 4 5 10 9 7 26 31 34 34 23 14 14 14 13 18 20 21 25 22 22 22 18 20 19 18 18 18 22 22 20 21 21 19 19
11 9 8 6 5 5 5 4 4 4 6 9 13 17 20 28 32 35 37 24 18 15 11 10 15 21 25 22 22 18 19 23 29 27 25 27 26 25 21 19 18 17 17
11 10 9 9 8 8 6 5 4 3 4 5 4 3 1 22 28 31 32 25 12 9 9 8 11 23 27 26 15 20 21 22 30 30 31 30 28 29 31 29 26 23 22
12 10 8 7 5 4 3 3 3 3 3 5 7 9 14 24 28 27 25 24 13 5 6 8 7 21 24 21 18 15 27 21 28 26 26 29 28 30 30 26 24 22 20
9 8 9 8 8 6 3 2 3 7 8 6 7 11 20 23 25 26 24 17 15 16 12 11 8 15 26 22 15 14 25 25 28 26 20 18 25 31 27 26 26 26 23
7 7 6 4 2 5 1 3 0 5 9 11 11 11 15 22 22 23 22 19 13 11 14 16 14 14 20 18 18 18 14 15 24 26 22 27 21 24 27 30 29 29 25
3 4 4 4 3 1 2 8 7 9 11 13 12 12 14 15 18 16 16 19 18 19 16 13 9 16 22 20 24 19 21 21 24 25 19 23 23 21 22 24 24 23 21
3 2 3 4 3 3 2 4 4 13 15 14 14 14 15 16 15 12 12 14 22 26 21 24 22 17 19 15 18 19 22 20 18 27 24 24 22 19 28 23 22 21 22
Wind_Direction
151 149 143 132 138 135 133 134 135 135 110 102 118 121 114 137 92 65 342 128 138 143 126 121 125 115 76 84 310 269 261 284 333 15 35 339 316 303 350 347 4 24 32
146 131 131 134 143 140 139 140 134 130 119 130 137 124 138 138 121 123 153 123 146 151 134 134 143 133 114 100 91 278 251 253 266 288 21 1 353 306 302 313 336 359 13
144 134 132 137 146 141 134 143 143 129 110 103 108 122 106 123 112 123 126 152 150 150 148 152 147 138 133 122 117 110 279 246 255 259 315 333 331 289 271 283 296 308 348
160 135 135 140 147 145 142 151 147 131 119 99 114 142 137 133 137 140 135 137 126 141 153 158 156 143 143 147 131 127 246 233 231 237 268 292 292 282 279 262 267 273 292
165 145 139 132 128 111 108 108 109 101 87 14 104 83 354 157 155 126 134 146 143 135 159 164 160 151 153 157 153 137 148 225 230 233 251 272 264 281 289 271 254 250 255
162 148 129 115 99 70 74 74 76 71 89 125 135 141 160 156 146 168 154 145 152 161 159 161 165 167 166 169 164 154 207 224 226 230 233 241 255 274 280 280 262 240 239
162 155 148 137 122 106 95 98 60 76 52 99 92 119 150 166 178 175 164 155 165 170 171 167 169 167 172 182 174 182 219 225 228 227 226 224 238 257 268 257 255 263 261
166 162 157 157 146 139 130 136 121 64 8 75 109 55 9 344 155 173 163 171 174 167 175 176 174 175 179 184 194 203 215 220 222 219 220 229 229 233 231 239 242 248 260
171 170 168 162 162 144 146 148 147 89 14 39 86 22 68 55 354 342 159 171 173 174 174 178 180 180 186 190 192 203 209 215 216 216 221 224 228 237 227 229 238 233 250
172 173 171 168 164 161 154 158 145 96 339 21 347 166 353 14 342 345 319 168 166 175 176 174 181 183 184 191 194 198 204 208 212 212 220 220 217 228 228 228 228 228 236
180 179 178 175 175 168 169 163 153 157 5 342 331 317 327 4 26 327 312 321 153 177 175 179 178 180 182 186 194 195 198 200 203 206 201 206 203 203 209 215 222 231 242
181 186 185 185 186 189 187 181 179 211 305 311 319 313 312 327 16 125 330 321 337 305 177 181 181 181 180 184 187 191 192 195 198 200 194 192 196 196 200 203 209 210 215
192 190 190 193 194 193 194 188 214 217 293 312 312 317 303 310 328 343 7 286 290 281 293 181 184 183 182 181 188 188 191 194 195 198 197 195 192 195 194 195 200 202 205
195 197 203 206 207 205 211 253 265 279 278 301 313 297 297 296 294 316 330 307 292 300 288 292 281 195 190 190 187 190 192 194 197 198 198 200 200 199 198 198 201 201 197
201 199 204 211 218 232 251 281 270 212 229 287 276 314 302 299 287 297 285 305 306 284 279 294 292 263 207 226 199 192 192 195 200 201 202 202 203 205 205 204 205 204 203
203 200 201 265 297 292 190 283 317 211 200 205 214 223 212 209 235 286 277 244 295 294 256 292 279 288 229 208 213 206 218 199 198 200 201 201 202 205 206 206 207 207 207
187 199 244 329 181 182 148 156 169 179 195 203 197 194 208 210 245 224 227 236 225 231 241 288 289 288 276 262 252 217 242 244 249 200 200 202 203 205 205 204 204 205 206
167 160 131 142 161 154 118 136 134 92 146 134 152 312 257 271 261 283 286 261 267 278 268 250 286 280 277 272 269 255 244 250 257 249 204 201 202 203 205 206 206 206 209
148 140 126 117 93 101 73 81 74 95 119 161 165 171 241 278 276 284 296 281 282 280 274 284 282 277 270 272 270 269 263 262 258 258 254 218 209 207 211 211 212 215 215
138 131 125 113 101 70 61 60 61 92 127 156 183 207 227 266 272 269 280 292 289 285 265 249 276 270 267 275 273 267 268 266 261 263 266 265 264 263 262 256 247 235 237
128 126 122 123 119 114 107 95 81 63 32 13 22 125 326 247 272 279 282 294 295 273 275 225 268 267 264 266 267 275 270 271 264 261 261 264 266 268 269 272 270 267 266
130 119 115 111 96 59 56 83 88 70 21 355 354 357 348 320 300 295 311 300 313 289 268 276 245 269 271 274 281 270 272 271 269 266 261 264 265 269 275 274 273 268 261
125 126 127 129 132 128 107 55 354 333 332 336 340 339 325 317 312 311 316 336 325 308 312 302 273 280 272 279 285 284 275 274 269 267 261 262 267 268 272 275 275 277 277
142 143 146 144 138 156 196 165 319 326 321 317 317 324 328 317 321 320 318 328 344 339 314 305 301 294 285 287 291 288 290 292 282 270 267 267 273 274 277 276 275 275 279
165 175 174 185 187 200 166 188 307 304 304 308 309 308 315 323 321 332 335 322 318 312 326 326 327 298 290 292 284 293 291 285 275 271 267 271 273 279 284 283 279 279 280
241 235 224 215 234 235 222 225 212 310 298 304 304 302 306 310 315 325 324 327 303 284 306 294 302 309 299 305 293 292 293 288 280 276 271 270 275 284 280 285 282 281 279